FDX1205 KORD-KMEM

Flight info

Callsign FDX1205
Flight time 1h 9m
Altitude 36000
Route CMSKY CARYN CYBIL PXV BLUZZ5
Aircraft MD11/H-SDE1E2E3FGHIJ2J3J4J5M1RWXY/LB1D1

Departure

Time 2026-05-05 07:32
Airport Chicago O'Hare International Airport (KORD)

Arrival

Time 2026-05-05 08:42
Airport Memphis International Airport (KMEM)
Time Latitude Longitude Altitude Speed Heading
2026-05-05 06:55 41.96117 -87.92565 678 ft 0 kts 91°
2026-05-05 07:14 41.96117 -87.92581 678 ft 3 kts 89°
2026-05-05 07:14 41.96117 -87.92607 678 ft 2 kts 90°
2026-05-05 07:14 41.96117 -87.92629 678 ft 3 kts 77°
2026-05-05 07:14 41.96112 -87.92649 675 ft 3 kts 44°
2026-05-05 07:15 41.96101 -87.92660 673 ft 3 kts
2026-05-05 07:15 41.96081 -87.92662 675 ft 3 kts 359°
2026-05-05 07:15 41.96072 -87.92662 675 ft 0 kts
2026-05-05 07:19 41.96087 -87.92662 675 ft 3 kts
2026-05-05 07:20 41.96118 -87.92661 676 ft 8 kts
2026-05-05 07:20 41.96203 -87.92661 678 ft 16 kts
2026-05-05 07:20 41.96307 -87.92672 678 ft 13 kts 339°
2026-05-05 07:20 41.96372 -87.92721 678 ft 8 kts 346°
2026-05-05 07:21 41.96412 -87.92703 678 ft 5 kts 30°
2026-05-05 07:21 41.96447 -87.92671 677 ft 8 kts 30°
2026-05-05 07:21 41.96495 -87.92662 680 ft 8 kts
2026-05-05 07:21 41.96572 -87.92661 681 ft 15 kts
2026-05-05 07:22 41.96700 -87.92663 679 ft 19 kts 359°
2026-05-05 07:22 41.96732 -87.92657 679 ft 1 kts
2026-05-05 07:22 41.96769 -87.92660 679 ft 10 kts 357°
2026-05-05 07:22 41.96865 -87.92662 678 ft 17 kts 360°
2026-05-05 07:23 41.96993 -87.92663 679 ft 13 kts 359°
2026-05-05 07:23 41.97030 -87.92650 679 ft 2 kts 47°
2026-05-05 07:23 41.97037 -87.92610 679 ft 8 kts 84°
2026-05-05 07:23 41.97037 -87.92497 678 ft 15 kts 90°
2026-05-05 07:24 41.97038 -87.92328 678 ft 20 kts 89°
2026-05-05 07:24 41.97039 -87.92127 678 ft 23 kts 89°
2026-05-05 07:24 41.97039 -87.91899 679 ft 25 kts 90°
2026-05-05 07:24 41.97039 -87.91677 679 ft 23 kts 90°
2026-05-05 07:25 41.97038 -87.91474 679 ft 21 kts 89°
2026-05-05 07:25 41.97042 -87.91289 679 ft 19 kts 89°
2026-05-05 07:25 41.97038 -87.91138 678 ft 14 kts 88°
2026-05-05 07:25 41.97041 -87.91015 678 ft 13 kts 88°
2026-05-05 07:26 41.97043 -87.90904 677 ft 11 kts 90°
2026-05-05 07:26 41.97041 -87.90794 677 ft 14 kts 90°
2026-05-05 07:26 41.97041 -87.90658 677 ft 14 kts 90°
2026-05-05 07:26 41.97042 -87.90534 677 ft 12 kts 90°
2026-05-05 07:27 41.97042 -87.90418 677 ft 14 kts 89°
2026-05-05 07:27 41.97043 -87.90274 677 ft 17 kts 89°
2026-05-05 07:27 41.97041 -87.90098 678 ft 20 kts 90°
2026-05-05 07:27 41.97044 -87.89891 678 ft 23 kts 89°
2026-05-05 07:28 41.97042 -87.89690 678 ft 21 kts 90°
2026-05-05 07:28 41.97043 -87.89507 678 ft 19 kts 89°
2026-05-05 07:28 41.97041 -87.89352 677 ft 14 kts 89°
2026-05-05 07:28 41.97043 -87.89236 677 ft 12 kts 89°
2026-05-05 07:29 41.97044 -87.89126 676 ft 12 kts 89°
2026-05-05 07:29 41.97045 -87.88998 676 ft 16 kts 91°
2026-05-05 07:29 41.97041 -87.88833 676 ft 20 kts 88°
2026-05-05 07:29 41.97044 -87.88632 676 ft 22 kts 89°
2026-05-05 07:30 41.97045 -87.88460 676 ft 13 kts 89°
2026-05-05 07:30 41.97022 -87.88404 674 ft 7 kts 140°
2026-05-05 07:30 41.96971 -87.88398 673 ft 10 kts 186°
2026-05-05 07:31 41.96919 -87.88409 672 ft 3 kts 210°
2026-05-05 07:31 41.96915 -87.88425 672 ft 4 kts 249°
2026-05-05 07:31 41.96908 -87.88510 672 ft 18 kts 270°
2026-05-05 07:31 41.96909 -87.89031 673 ft 96 kts 270°
2026-05-05 07:32 41.96906 -87.90249 675 ft 162 kts 270°
2026-05-05 07:32 41.96897 -87.91881 1086 ft 180 kts 270°
2026-05-05 07:32 41.96844 -87.93564 1950 ft 181 kts 272°
2026-05-05 07:32 41.96693 -87.95251 2845 ft 183 kts 269°
2026-05-05 07:33 41.96525 -87.96959 3697 ft 184 kts 268°
2026-05-05 07:33 41.96394 -87.98660 4610 ft 182 kts 268°
2026-05-05 07:33 41.96314 -88.00339 5461 ft 178 kts 265°
2026-05-05 07:33 41.95841 -88.01849 6282 ft 179 kts 231°
2026-05-05 07:34 41.94696 -88.02771 6600 ft 214 kts 200°
2026-05-05 07:34 41.93086 -88.02720 6769 ft 253 kts 169°
2026-05-05 07:34 41.91392 -88.01703 6956 ft 279 kts 158°
2026-05-05 07:34 41.89633 -88.00421 7305 ft 291 kts 158°
2026-05-05 07:35 41.87817 -87.99255 8202 ft 289 kts 163°
2026-05-05 07:35 41.85963 -87.98304 9087 ft 289 kts 169°
2026-05-05 07:35 41.84031 -87.97512 9890 ft 292 kts 173°
2026-05-05 07:35 41.82020 -87.96831 10310 ft 311 kts 175°
2026-05-05 07:36 41.79811 -87.96202 10471 ft 339 kts 175°
2026-05-05 07:36 41.77408 -87.95587 10694 ft 361 kts 176°
2026-05-05 07:36 41.74915 -87.94982 11502 ft 366 kts 176°
2026-05-05 07:36 41.72393 -87.94391 12301 ft 371 kts 177°
2026-05-05 07:37 41.69827 -87.93810 13087 ft 376 kts 178°
2026-05-05 07:37 41.67230 -87.93235 13811 ft 381 kts 178°
2026-05-05 07:37 41.64602 -87.92661 14493 ft 384 kts 178°
2026-05-05 07:37 41.61952 -87.92085 15160 ft 388 kts 178°
2026-05-05 07:38 41.59273 -87.91507 15812 ft 392 kts 178°
2026-05-05 07:38 41.56569 -87.90924 16462 ft 395 kts 178°
2026-05-05 07:38 41.53873 -87.90344 17079 ft 399 kts 178°
2026-05-05 07:38 41.51117 -87.89752 17705 ft 403 kts 178°
2026-05-05 07:39 41.48334 -87.89155 18289 ft 406 kts 178°
2026-05-05 07:39 41.45531 -87.88553 18814 ft 409 kts 178°
2026-05-05 07:39 41.42712 -87.87966 19325 ft 410 kts 181°
2026-05-05 07:39 41.39885 -87.87772 19837 ft 405 kts 188°
2026-05-05 07:40 41.37069 -87.87919 20334 ft 405 kts 191°
2026-05-05 07:40 41.34253 -87.88202 20856 ft 407 kts 192°
2026-05-05 07:40 41.31423 -87.88521 21390 ft 410 kts 192°
2026-05-05 07:40 41.28571 -87.88838 21924 ft 413 kts 192°
2026-05-05 07:41 41.25686 -87.89120 22445 ft 418 kts 190°
2026-05-05 07:41 41.22767 -87.89210 22993 ft 423 kts 187°
2026-05-05 07:41 41.19806 -87.89165 23499 ft 428 kts 186°
2026-05-05 07:41 41.16810 -87.89063 23966 ft 431 kts 185°
2026-05-05 07:42 41.13799 -87.88946 24442 ft 434 kts 185°
2026-05-05 07:42 41.10773 -87.88832 24917 ft 438 kts 185°
2026-05-05 07:42 41.07712 -87.88723 25389 ft 441 kts 185°
2026-05-05 07:42 41.04636 -87.88622 25876 ft 444 kts 186°
2026-05-05 07:43 41.01539 -87.88524 26348 ft 447 kts 186°
2026-05-05 07:43 40.98420 -87.88427 26812 ft 450 kts 186°
2026-05-05 07:43 40.95321 -87.88333 27265 ft 453 kts 186°
2026-05-05 07:43 40.92158 -87.88237 27710 ft 456 kts 186°
2026-05-05 07:44 40.88974 -87.88141 28159 ft 459 kts 186°
2026-05-05 07:44 40.85769 -87.88044 28596 ft 462 kts 186°
2026-05-05 07:44 40.82542 -87.87947 29034 ft 465 kts 186°
2026-05-05 07:44 40.79286 -87.87848 29457 ft 468 kts 186°
2026-05-05 07:45 40.76016 -87.87750 29843 ft 472 kts 186°
2026-05-05 07:45 40.72720 -87.87650 30177 ft 474 kts 186°
2026-05-05 07:45 40.69433 -87.87549 30613 ft 473 kts 186°
2026-05-05 07:45 40.66149 -87.87446 31092 ft 471 kts 186°
2026-05-05 07:46 40.62879 -87.87344 31571 ft 469 kts 186°
2026-05-05 07:46 40.59621 -87.87244 32038 ft 468 kts 186°
2026-05-05 07:46 40.56373 -87.87145 32467 ft 466 kts 186°
2026-05-05 07:46 40.53128 -87.87048 32896 ft 465 kts 187°
2026-05-05 07:47 40.49935 -87.86952 33299 ft 464 kts 187°
2026-05-05 07:47 40.46713 -87.86856 33690 ft 463 kts 187°
2026-05-05 07:47 40.43504 -87.86761 34008 ft 462 kts 187°
2026-05-05 07:47 40.40285 -87.86667 34266 ft 463 kts 187°
2026-05-05 07:48 40.37061 -87.86573 34502 ft 464 kts 187°
2026-05-05 07:48 40.33823 -87.86478 34722 ft 465 kts 187°
2026-05-05 07:48 40.30584 -87.86368 34958 ft 466 kts 187°
2026-05-05 07:48 40.27338 -87.86236 35175 ft 467 kts 187°
2026-05-05 07:49 40.24083 -87.86092 35387 ft 468 kts 187°
2026-05-05 07:49 40.20823 -87.85943 35603 ft 469 kts 187°
2026-05-05 07:49 40.17547 -87.85795 35735 ft 471 kts 187°
2026-05-05 07:49 40.14264 -87.85647 35758 ft 471 kts 187°
2026-05-05 07:50 40.07710 -87.85354 35772 ft 472 kts 187°
2026-05-05 07:50 40.01148 -87.85063 35764 ft 472 kts 187°
2026-05-05 07:51 39.94579 -87.84774 35751 ft 472 kts 187°
2026-05-05 07:51 39.88040 -87.84488 35747 ft 473 kts 187°
2026-05-05 07:52 39.81442 -87.84200 35746 ft 475 kts 187°
2026-05-05 07:52 39.74809 -87.83912 35748 ft 478 kts 187°
2026-05-05 07:53 39.68140 -87.83621 35746 ft 481 kts 187°
2026-05-05 07:53 39.61437 -87.83328 35746 ft 483 kts 187°
2026-05-05 07:54 39.54713 -87.83034 35743 ft 484 kts 187°
2026-05-05 07:54 39.48006 -87.82742 35744 ft 485 kts 187°
2026-05-05 07:55 39.42346 -87.82498 35741 ft 486 kts 187°
2026-05-05 07:55 39.35583 -87.82207 35742 ft 487 kts 187°
2026-05-05 07:56 39.27714 -87.81867 35774 ft 487 kts 187°
2026-05-05 07:56 39.22040 -87.81622 35801 ft 487 kts 187°
2026-05-05 07:57 39.15299 -87.81332 35825 ft 487 kts 187°
2026-05-05 07:57 39.08516 -87.81041 35850 ft 488 kts 187°
2026-05-05 07:58 39.01737 -87.80751 35859 ft 488 kts 187°
2026-05-05 07:58 38.94932 -87.80460 35850 ft 488 kts 187°
2026-05-05 07:59 38.88137 -87.80170 35947 ft 489 kts 187°
2026-05-05 07:59 38.81334 -87.79881 36004 ft 490 kts 187°
2026-05-05 08:00 38.74512 -87.79592 36011 ft 491 kts 186°
2026-05-05 08:00 38.67716 -87.79304 36012 ft 493 kts 186°
2026-05-05 08:01 38.64288 -87.79159 35836 ft 493 kts 186°
2026-05-05 08:01 38.60855 -87.79014 35838 ft 494 kts 186°
2026-05-05 08:01 38.53970 -87.78724 35842 ft 495 kts 186°
2026-05-05 08:02 38.47068 -87.78433 35828 ft 496 kts 186°
2026-05-05 08:02 38.40151 -87.78142 35816 ft 498 kts 186°
2026-05-05 08:03 38.33218 -87.77851 35799 ft 499 kts 186°
2026-05-05 08:03 38.26264 -87.77559 35802 ft 501 kts 186°
2026-05-05 08:04 38.19332 -87.77269 35814 ft 502 kts 186°
2026-05-05 08:04 38.12283 -87.76975 35824 ft 504 kts 186°
2026-05-05 08:05 38.05301 -87.76683 35830 ft 506 kts 186°
2026-05-05 08:05 37.98269 -87.76390 35840 ft 507 kts 186°
2026-05-05 08:06 37.91328 -87.76907 35850 ft 489 kts 201°
2026-05-05 08:06 37.88126 -87.78173 35852 ft 476 kts 212°
2026-05-05 08:06 37.85172 -87.79986 35858 ft 469 kts 218°
2026-05-05 08:07 37.79487 -87.84020 35851 ft 469 kts 218°
2026-05-05 08:07 37.73698 -87.87882 35844 ft 472 kts 216°
2026-05-05 08:08 37.67805 -87.91556 35847 ft 473 kts 215°
2026-05-05 08:08 37.61883 -87.95169 35846 ft 473 kts 215°
2026-05-05 08:09 37.55955 -87.98764 35854 ft 473 kts 217°
2026-05-05 08:09 37.50042 -88.02371 35857 ft 473 kts 216°
2026-05-05 08:10 37.44146 -88.05939 35861 ft 473 kts 216°
2026-05-05 08:10 37.38212 -88.09525 35867 ft 472 kts 216°
2026-05-05 08:11 37.32285 -88.13103 35865 ft 473 kts 216°
2026-05-05 08:11 37.26357 -88.16678 35867 ft 473 kts 216°
2026-05-05 08:12 37.20420 -88.20255 35860 ft 472 kts 217°
2026-05-05 08:12 37.14491 -88.23820 35847 ft 472 kts 217°
2026-05-05 08:13 37.08565 -88.27375 35838 ft 472 kts 217°
2026-05-05 08:13 37.02667 -88.30896 35844 ft 472 kts 217°
2026-05-05 08:14 36.96802 -88.34528 35855 ft 471 kts 218°
2026-05-05 08:14 36.90866 -88.38050 35861 ft 473 kts 217°
2026-05-05 08:15 36.84893 -88.41542 35869 ft 473 kts 218°
2026-05-05 08:15 36.78984 -88.45036 35875 ft 473 kts 218°
2026-05-05 08:16 36.72998 -88.48591 35882 ft 473 kts 218°
2026-05-05 08:16 36.67103 -88.52117 35876 ft 475 kts 218°
2026-05-05 08:17 36.61176 -88.55582 35614 ft 463 kts 218°
2026-05-05 08:17 36.58265 -88.57288 35200 ft 462 kts 218°
2026-05-05 08:17 36.55362 -88.59002 34605 ft 461 kts 217°
2026-05-05 08:18 36.52468 -88.60714 34008 ft 460 kts 216°
2026-05-05 08:18 36.49576 -88.62424 33377 ft 461 kts 216°
2026-05-05 08:18 36.46680 -88.64135 32769 ft 462 kts 215°
2026-05-05 08:18 36.43778 -88.65848 32178 ft 462 kts 215°
2026-05-05 08:19 36.40864 -88.67564 31596 ft 463 kts 214°
2026-05-05 08:19 36.37958 -88.69272 31005 ft 463 kts 213°
2026-05-05 08:19 36.35046 -88.70981 30410 ft 463 kts 213°
2026-05-05 08:19 36.32134 -88.72684 29812 ft 462 kts 212°
2026-05-05 08:20 36.29230 -88.74374 29361 ft 456 kts 212°
2026-05-05 08:20 36.26398 -88.76017 28817 ft 444 kts 212°
2026-05-05 08:20 36.23620 -88.77636 28104 ft 438 kts 212°
2026-05-05 08:20 36.20882 -88.79240 27429 ft 431 kts 212°
2026-05-05 08:21 36.18196 -88.80817 26791 ft 425 kts 212°
2026-05-05 08:21 36.15537 -88.82379 26161 ft 421 kts 211°
2026-05-05 08:21 36.12907 -88.83923 25540 ft 416 kts 211°
2026-05-05 08:21 36.10301 -88.85453 24917 ft 412 kts 211°
2026-05-05 08:22 36.07756 -88.86944 24314 ft 408 kts 211°
2026-05-05 08:22 36.05195 -88.88444 23705 ft 405 kts 210°
2026-05-05 08:22 36.02664 -88.89924 23033 ft 400 kts 210°
2026-05-05 08:22 36.00160 -88.91386 22386 ft 396 kts 210°
2026-05-05 08:23 35.97680 -88.92833 21771 ft 392 kts 210°
2026-05-05 08:23 35.95225 -88.94266 21169 ft 389 kts 210°
2026-05-05 08:23 35.92787 -88.95686 20594 ft 386 kts 210°
2026-05-05 08:23 35.90372 -88.97093 20014 ft 383 kts 210°
2026-05-05 08:24 35.87968 -88.98493 19444 ft 380 kts 210°
2026-05-05 08:24 35.85585 -88.99880 18872 ft 378 kts 209°
2026-05-05 08:24 35.83218 -89.01256 18312 ft 375 kts 209°
2026-05-05 08:24 35.80870 -89.02621 17693 ft 372 kts 209°
2026-05-05 08:25 35.78536 -89.03975 17089 ft 368 kts 209°
2026-05-05 08:25 35.76257 -89.05297 16546 ft 365 kts 209°
2026-05-05 08:25 35.73974 -89.06642 15986 ft 361 kts 212°
2026-05-05 08:25 35.71925 -89.08415 15432 ft 354 kts 224°
2026-05-05 08:26 35.70182 -89.10473 14899 ft 351 kts 229°
2026-05-05 08:26 35.68516 -89.12651 14364 ft 348 kts 230°
2026-05-05 08:26 35.66885 -89.14838 13833 ft 346 kts 230°
2026-05-05 08:26 35.65258 -89.17013 13263 ft 344 kts 230°
2026-05-05 08:27 35.63643 -89.19157 12714 ft 341 kts 229°
2026-05-05 08:27 35.62028 -89.21284 12184 ft 339 kts 229°
2026-05-05 08:27 35.60419 -89.23395 11669 ft 335 kts 229°
2026-05-05 08:27 35.58896 -89.25516 11263 ft 327 kts 232°
2026-05-05 08:28 35.57456 -89.27640 10893 ft 321 kts 232°
2026-05-05 08:28 35.56049 -89.29764 10538 ft 320 kts 233°
2026-05-05 08:28 35.54664 -89.31864 10365 ft 309 kts 233°
2026-05-05 08:28 35.53336 -89.33862 10225 ft 295 kts 233°
2026-05-05 08:29 35.52063 -89.35769 10096 ft 282 kts 233°
2026-05-05 08:29 35.50844 -89.37590 9982 ft 269 kts 233°
2026-05-05 08:29 35.49759 -89.39396 9886 ft 258 kts 241°
2026-05-05 08:30 35.48116 -89.43270 9794 ft 257 kts 245°
2026-05-05 08:30 35.47331 -89.45246 9744 ft 257 kts 246°
2026-05-05 08:30 35.46549 -89.47218 9678 ft 257 kts 245°
2026-05-05 08:30 35.45768 -89.49191 9617 ft 256 kts 245°
2026-05-05 08:31 35.44989 -89.51159 9545 ft 256 kts 245°
2026-05-05 08:31 35.44209 -89.53127 9479 ft 256 kts 245°
2026-05-05 08:31 35.43432 -89.55087 9418 ft 255 kts 245°
2026-05-05 08:31 35.42656 -89.57044 9348 ft 255 kts 245°
2026-05-05 08:32 35.41893 -89.58975 9281 ft 254 kts 246°
2026-05-05 08:32 35.41127 -89.60930 9220 ft 254 kts 246°
2026-05-05 08:32 35.40354 -89.62877 9143 ft 254 kts 245°
2026-05-05 08:32 35.39582 -89.64818 9086 ft 253 kts 246°
2026-05-05 08:33 35.38812 -89.66764 9023 ft 253 kts 246°
2026-05-05 08:33 35.38045 -89.68698 8957 ft 252 kts 246°
2026-05-05 08:33 35.37275 -89.70634 8874 ft 253 kts 245°
2026-05-05 08:33 35.36503 -89.72567 8661 ft 252 kts 245°
2026-05-05 08:34 35.35735 -89.74491 8416 ft 251 kts 245°
2026-05-05 08:34 35.34967 -89.76413 8053 ft 251 kts 245°
2026-05-05 08:34 35.34198 -89.78335 7643 ft 252 kts 245°
2026-05-05 08:34 35.33424 -89.80272 7235 ft 253 kts 244°
2026-05-05 08:35 35.32648 -89.82211 6844 ft 254 kts 244°
2026-05-05 08:35 35.31869 -89.84156 6433 ft 255 kts 244°
2026-05-05 08:35 35.31088 -89.86107 6006 ft 256 kts 243°
2026-05-05 08:35 35.30303 -89.88065 5578 ft 256 kts 243°
2026-05-05 08:36 35.29520 -89.90018 5164 ft 254 kts 243°
2026-05-05 08:36 35.28751 -89.91934 4794 ft 248 kts 243°
2026-05-05 08:36 35.28002 -89.93803 4412 ft 242 kts 243°
2026-05-05 08:36 35.27231 -89.95568 4054 ft 236 kts 236°
2026-05-05 08:37 35.26094 -89.96959 3737 ft 227 kts 213°
2026-05-05 08:37 35.24620 -89.97472 3442 ft 216 kts 189°
2026-05-05 08:37 35.23172 -89.97550 3359 ft 203 kts 188°
2026-05-05 08:37 35.21763 -89.97615 3363 ft 202 kts 187°
2026-05-05 08:38 35.20347 -89.97625 3293 ft 205 kts 185°
2026-05-05 08:38 35.18930 -89.97586 3022 ft 199 kts 185°
2026-05-05 08:38 35.17601 -89.97547 2761 ft 188 kts 185°
2026-05-05 08:38 35.16354 -89.97513 2523 ft 171 kts 186°
2026-05-05 08:39 35.15225 -89.97485 2311 ft 157 kts 186°
2026-05-05 08:39 35.14149 -89.97466 2129 ft 153 kts 187°
2026-05-05 08:39 35.13104 -89.97446 1899 ft 146 kts 187°
2026-05-05 08:39 35.12103 -89.97428 1734 ft 142 kts 187°
2026-05-05 08:40 35.11133 -89.97412 1529 ft 137 kts 185°
2026-05-05 08:40 35.10182 -89.97391 1382 ft 137 kts 187°
2026-05-05 08:40 35.09220 -89.97379 1167 ft 139 kts 183°
2026-05-05 08:40 35.08235 -89.97359 1025 ft 144 kts 182°
2026-05-05 08:41 35.07213 -89.97348 805 ft 148 kts 181°
2026-05-05 08:41 35.06177 -89.97333 640 ft 148 kts 177°
2026-05-05 08:41 35.05146 -89.97306 418 ft 149 kts 181°
2026-05-05 08:41 35.04148 -89.97288 335 ft 125 kts 178°
2026-05-05 08:42 35.03482 -89.97268 335 ft 67 kts 178°
2026-05-05 08:42 35.03167 -89.97260 336 ft 37 kts 179°
2026-05-05 08:42 35.02952 -89.97256 335 ft 25 kts 181°
2026-05-05 08:42 35.02793 -89.97292 335 ft 22 kts 199°
2026-05-05 08:43 35.02704 -89.97367 334 ft 5 kts 251°
2026-05-05 08:43 35.02708 -89.97378 333 ft 2 kts 293°
2026-05-05 08:43 35.02727 -89.97406 335 ft 7 kts 317°
2026-05-05 08:43 35.02789 -89.97428 332 ft 12 kts 357°
2026-05-05 08:44 35.02876 -89.97431 333 ft 12 kts 359°
2026-05-05 08:44 35.02978 -89.97432 333 ft 17 kts 359°
2026-05-05 08:44 35.03062 -89.97432 331 ft 20 kts
2026-05-05 08:44 35.03213 -89.97439 333 ft 24 kts 358°
2026-05-05 08:45 35.03395 -89.97443 332 ft 28 kts 359°
2026-05-05 08:45 35.03581 -89.97442 331 ft 26 kts
2026-05-05 08:45 35.03752 -89.97444 332 ft 24 kts 359°
2026-05-05 08:45 35.03907 -89.97450 334 ft 21 kts 359°
2026-05-05 08:46 35.04046 -89.97453 333 ft 19 kts 358°
2026-05-05 08:46 35.04173 -89.97456 333 ft 17 kts 359°
2026-05-05 08:46 35.04286 -89.97459 334 ft 16 kts 359°
2026-05-05 08:46 35.04413 -89.97461 331 ft 20 kts 359°
2026-05-05 08:47 35.04566 -89.97464 333 ft 23 kts 359°
2026-05-05 08:47 35.04716 -89.97469 333 ft 20 kts 360°
2026-05-05 08:47 35.04851 -89.97471 332 ft 19 kts 359°
2026-05-05 08:47 35.04974 -89.97473 330 ft 17 kts 359°
2026-05-05 08:48 35.05078 -89.97475 332 ft 14 kts 359°
2026-05-05 08:48 35.05187 -89.97475 333 ft 17 kts
2026-05-05 08:48 35.05316 -89.97473 333 ft 20 kts
2026-05-05 08:48 35.05469 -89.97468 333 ft 23 kts
2026-05-05 08:49 35.05602 -89.97487 334 ft 18 kts 359°
2026-05-05 08:49 35.05737 -89.97488 333 ft 21 kts 359°
2026-05-05 08:49 35.05882 -89.97501 337 ft 20 kts 344°
2026-05-05 08:49 35.06028 -89.97539 334 ft 23 kts 358°
2026-05-05 08:50 35.06160 -89.97540 335 ft 14 kts 10°
2026-05-05 08:50 35.06193 -89.97480 335 ft 7 kts 86°
2026-05-05 08:50 35.06196 -89.97436 334 ft 4 kts 86°
2026-05-05 08:50 35.06197 -89.97403 333 ft 4 kts 88°
2026-05-05 08:51 35.06198 -89.97368 334 ft 5 kts 89°
2026-05-05 08:51 35.06198 -89.97319 334 ft 6 kts 90°
2026-05-05 08:51 35.06203 -89.97291 335 ft 1 kts 68°
2026-05-05 08:51 35.06206 -89.97285 335 ft 1 kts 56°
2026-05-05 08:52 35.06213 -89.97278 335 ft 2 kts 41°
2026-05-05 08:52 35.06224 -89.97272 333 ft 2 kts 21°
2026-05-05 08:52 35.06235 -89.97272 333 ft 1 kts 359°
2026-05-05 08:52 35.06250 -89.97273 336 ft 2 kts 359°
2026-05-05 08:53 35.06261 -89.97273 334 ft 1 kts 359°
2026-05-05 08:53 35.06267 -89.97273 335 ft 2 kts 359°
2026-05-05 08:53 35.06271 -89.97273 336 ft 0 kts 359°